Location: ????????
(56.0167°N, 38.0333°E)
Time: 13:59:15
(UTC+00:00)

Cosmos 1733 - Pass Details

Date: 19 May 2025
Orbit: 374 x 381 km, 82.5° (Epoch: 20 June)

Event Time Altitude Azimuth Distance (km) Brightness Sun altitude
Rises 18:58:48 0° 342° (NNW) 2,316 8.3 -8.0°
Reaches altitude 10° 19:00:54 10° 334° (NNW) 1,452 7.1 -8.2°
Maximum altitude 19:03:50 38° 265° (W) 630 3.9 -8.4°
Drops below altitude 10° 19:06:46 10° 196° (SSW) 1,435 5.1 -8.7°
Enters shadow 19:07:35 - 192° (SSW) 1,768 5.5 -8.7°
